[[{"header":{"parameterUnit":"m.s-1","parameterCategory":1,"la1":30.2991,"la2":30.254,"lo1":-89.0895,"lo2":-89.0444,"dy":0.0017,"dx":0.0017,"nx":28,"ny":28,"refTime":"2025-07-23T09:00:00:Z","depth":0,"parameterNumber":2,"parameterNumberName":"U-component_of_WINDS"},"data":[0,0,0,0,0,0,0,0,0,0,0,0,0,0,0,0,0,0,0,0,0,0,0,0,0,0,0,0,0,0,0,0,0,0,0,0,0,0,0,0,0,0,0,0,0,0,0,0,0,0,0,0,0,0,0,0,0,0,-3.8476,-3.8475,0,-3.8357,-3.8355,-3.8354,-3.8338,-3.8339,-3.8341,-3.8342,-3.8211,-3.8206,-3.8202,0,0,0,0,0,0,0,0,0,0,0,0,0,-3.8681,-3.8678,-3.8476,-3.8475,-3.8473,-3.8357,-3.8355,-3.8353,-3.8338,-3.8339,-3.8341,-3.8342,-3.8212,-3.8207,-3.8202,0,0,0,0,0,0,0,0,0,0,0,0,0,-3.858,-3.8677,-3.8477,-3.8452,-3.8448,-3.8357,-3.8355,-3.8353,-3.8338,-3.8339,-3.8341,-3.8343,-3.8214,-3.8208,-3.8201,-3.8123,0,0,-3.818,-3.8177,0,0,0,0,0,0,0,0,-3.8586,-3.8572,-3.8457,-3.8453,-3.8449,-3.8364,-3.838,-3.8276,-3.8337,-3.8379,-3.8342,-3.8344,-3.826,-3.8249,-3.8223,-3.8117,-3.8112,-3.8179,-3.8175,-3.8172,-3.817,0,0,0,0,0,0,0,-3.8593,-3.8577,-3.8429,-3.8455,-3.845,-3.8443,-3.8431,-3.836,-3.8311,-3.8376,-3.8375,-3.8361,-3.8258,-3.823,-3.822,-3.811,-3.8179,-3.8173,-3.8169,-3.8166,-3.793,-3.7927,0,0,0,0,0,0,-3.8606,-3.8583,-3.8432,-3.8425,-3.8524,-3.8438,-3.8424,-3.839,-3.8312,-3.8302,-3.836,-3.8361,-3.824,-3.8228,-3.8215,-3.8116,-3.8172,-3.8166,-3.8162,-3.7932,-3.7929,-3.7927,0,0,0,0,0,0,-3.861,-3.8592,-3.8437,-3.8504,-3.8484,-3.8433,-3.8394,-3.8386,-3.8358,-3.83,-3.829,-3.834,-3.8241,-3.8225,-3.8146,-3.8111,-3.8163,-3.8156,-3.7934,-3.7931,-3.7928,-3.7919,0,0,0,0,0,0,-3.8616,-3.8594,-3.8567,-3.8503,-3.848,-3.8373,-3.8392,-3.8383,-3.8347,-3.8347,-3.8279,-3.8269,-3.8241,-3.8156,-3.8139,-3.8103,-3.8151,-3.7937,-3.7933,-3.7929,-3.7922,-3.7916,-3.7911,0,0,0,0,0,-3.8624,-3.8568,-3.8566,-3.8547,-3.8445,-3.8371,-3.8358,-3.8329,-3.8345,-3.8314,-3.8276,-3.8271,-3.8119,-3.8148,-3.8129,-3.809,-3.7939,-3.7934,-3.7929,-3.7925,-3.7917,-3.7911,0,0,0,0,0,0,-3.8627,-3.856,-3.8556,-3.8479,-3.8431,-3.8369,-3.8331,-3.8323,-3.8268,-3.827,-3.8235,-3.8219,-3.8141,-3.8108,-3.8142,-3.8009,-3.803,-3.8021,-3.8033,-3.8025,-3.802,-3.8028,-3.8145,0,0,0,0,0,-3.8619,-3.8568,-3.8511,-3.8448,-3.8425,-3.8382,-3.8348,-3.8331,-3.8279,-3.8258,-3.8214,-3.8161,-3.8101,-3.8062,-3.8003,-3.7918,-3.79,-3.7881,-3.7876,-3.7871,-3.7863,-3.7811,-3.78,-3.7911,-3.7911,-3.7911,0,0,-3.8602,-3.8559,-3.8528,-3.8448,-3.8409,-3.8352,-3.8365,-3.8306,-3.8262,-3.8248,-3.817,-3.8136,-3.8074,-3.7991,-3.7952,-3.7961,-3.7829,-3.7865,-3.7862,-3.7856,-3.7805,-3.7794,-3.7785,-3.7907,-3.7908,-3.7908,0,0,-3.8541,-3.8505,-3.8447,-3.8408,-3.8349,-3.832,-3.8306,-3.8244,-3.8221,-3.8144,-3.8131,-3.8077,-3.7976,-3.7931,-3.7895,-3.7814,-3.7805,-3.7796,-3.7764,-3.7714,-3.7705,-3.7697,-3.7664,-3.7653,-3.7788,-3.7788,-3.7788,0,-3.8526,-3.8443,-3.8418,-3.8358,-3.8321,-3.8308,-3.8246,-3.8208,-3.8132,-3.8105,-3.8117,-3.7987,-3.7945,-3.7848,-3.7829,-3.7801,-3.778,-3.7802,-3.7709,-3.7701,-3.7693,-3.7661,-3.7649,-3.7787,-3.7787,-3.7787,-3.7787,0,-3.8425,-3.8368,-3.8328,-3.8256,-3.8215,-3.8155,-3.8117,-3.8077,-3.8063,-3.8032,-3.795,-3.7899,-3.7828,-3.7805,-3.779,-3.7705,-3.7712,-3.7717,-3.7737,-3.7682,-3.7651,-3.7639,-3.7786,-3.7786,-3.7786,-3.7787,0,0,-3.8363,-3.8277,-3.8262,-3.8228,-3.8161,-3.8114,-3.8051,-3.7984,-3.7949,-3.7897,-3.784,-3.7753,-3.7757,-3.7716,-3.7695,-3.7651,-3.7585,-3.7661,-3.7659,-3.7645,-3.7483,-3.7477,-3.7464,-3.758,-3.7578,-3.7576,-3.7487,0,-3.8291,-3.8182,-3.8156,-3.8061,-3.8004,-3.799,-3.7934,-3.7885,-3.7854,-3.7799,-3.7764,-3.7701,-3.7713,-3.7687,-3.7644,-3.7603,-3.7551,-3.7609,-3.7523,-3.752,-3.7535,-3.7449,-3.7443,-3.7362,-3.7475,-3.7473,-3.7472,0,-3.8193,-3.814,-3.8039,-3.7976,-3.7951,-3.7903,-3.7836,-3.7786,-3.7728,-3.7708,-3.7661,-3.7645,-3.7574,-3.76,-3.75,-3.754,-3.7503,-3.7477,-3.7473,-3.7461,-3.749,-3.743,-3.7335,-3.7322,-3.7453,-3.7455,-3.7456,0,-3.8153,-3.8055,-3.7982,-3.7953,-3.7879,-3.7844,-3.7811,-3.7755,-3.7715,-3.7656,-3.7629,-3.7563,-3.7525,-3.7473,-3.7437,-3.746,-3.7338,-3.7362,-3.7315,-3.7316,-3.7288,-3.729,-3.7182,-3.7271,-3.7271,-3.7271,-3.7271,0,-3.8074,-3.8012,-3.7962,-3.7916,-3.7845,-3.7814,-3.7743,-3.7709,-3.7659,-3.7603,-3.7586,-3.7534,-3.7492,-3.7432,-3.7403,-3.7322,-3.7306,-3.7285,-3.7277,-3.7284,-3.7287,-3.7257,-3.726,-3.7268,-3.7268,-3.7269,-3.727,0,-3.8016,-3.7981,-3.7898,-3.7835,-3.7817,-3.7766,-3.771,-3.7663,-3.7631,-3.756,-3.7542,-3.7491,-3.7419,-3.7379,-3.729,-3.727,-3.7178,-3.7176,-3.7198,-3.7194,-3.7149,-3.7152,-3.7015,-3.6994,-3.7101,-3.71,-3.7099,0,-3.7966,-3.7918,-3.7849,-3.7811,-3.7778,-3.7718,-3.7677,-3.7643,-3.7601,-3.7529,-3.7489,-3.7418,-3.7358,-3.7245,-3.7197,-3.7127,-3.712,-3.7077,-3.7109,-3.7116,-3.7114,-3.7116,-3.7108,-3.707,-3.7069,-3.7068,-3.7068,0,-3.788,-3.7864,-3.7807,-3.7743,-3.7695,-3.7642,-3.7589,-3.7559,-3.7516,-3.7468,-3.7396,-3.735,-3.7258,-3.7185,-3.7111,-3.7073,-3.7061,-3.7058,-3.7043,-3.7048,-3.7061,-3.7049,-3.7179,-3.7061,-3.7062,-3.7062,-3.7062,-3.7063,-3.7821,-3.7776,-3.772,-3.7655,-3.7613,-3.7563,-3.7515,-3.7477,-3.7417,-3.7341,-3.7324,-3.7247,-3.7186,-3.7085,-3.7045,-3.6981,-3.6989,-3.6968,-3.6962,-3.6956,-3.6952,-3.7075,-3.6968,-3.6968,-3.6968,-3.6969,-3.6969,0,-3.7731,-3.7694,-3.7635,-3.7562,-3.751,-3.7507,-3.7448,-3.7403,-3.7336,-3.7282,-3.7224,-3.7138,-3.7067,-3.7014,-3.694,-3.6899,-3.6891,-3.688,-3.6881,-3.6871,-3.6952,-3.6971,-3.6887,-3.6887,-3.6887,-3.6887,-3.6887,-3.6887,-3.7678,-3.76,-3.7577,-3.7476,-3.7438,-3.7364,-3.733,-3.7282,-3.7238,-3.7144,-3.7086,-3.7052,-3.6996,-3.6918,-3.6851,-3.6837,-3.6808,-3.6797,-3.6781,-3.6857,-3.6866,-3.6874,-3.6891,-3.6792,-3.6792,-3.6705,-3.6704,-3.6703]},{"header":{"parameterUnit":"m.s-1","parameterCategory":1,"la1":30.2991,"la2":30.254,"lo1":-89.0895,"lo2":-89.0444,"dy":0.0017,"dx":0.0017,"nx":28,"ny":28,"refTime":"2025-07-23T09:00:00:Z","depth":0,"parameterNumber":3,"parameterNumberName":"V-component_of_WINDS"},"data":[0,0,0,0,0,0,0,0,0,0,0,0,0,0,0,0,0,0,0,0,0,0,0,0,0,0,0,0,0,0,0,0,0,0,0,0,0,0,0,0,0,0,0,0,0,0,0,0,0,0,0,0,0,0,0,0,0,0,4.9216,4.9219,0,4.9539,4.9543,4.9546,4.9574,4.957,4.9567,4.9563,4.9893,4.9905,4.9917,0,0,0,0,0,0,0,0,0,0,0,0,0,4.862,4.8631,4.9215,4.922,4.9224,4.9539,4.9543,4.9547,4.9574,4.957,4.9566,4.9562,4.9889,4.9903,4.9918,0,0,0,0,0,0,0,0,0,0,0,0,0,4.8904,4.8634,4.9215,4.9275,4.9284,4.9538,4.9543,4.9549,4.9575,4.957,4.9565,4.956,4.9885,4.9902,4.992,5.0135,0,0,4.9975,4.9983,0,0,0,0,0,0,0,0,4.8888,4.8926,4.9262,4.9271,4.9281,4.9511,4.9454,4.9745,4.9577,4.9464,4.9563,4.9557,4.977,4.9797,4.9869,5.0151,5.0165,4.9977,4.9987,4.9995,5.0,0,0,0,0,0,0,0,4.8868,4.8912,4.9343,4.9267,4.9279,4.9285,4.932,4.9509,4.9642,4.9474,4.9477,4.9515,4.9774,4.9852,4.9877,5.017,4.9976,4.9992,5.0003,5.001,5.0645,5.0651,0,0,0,0,0,0,4.8837,4.8896,4.9333,4.9353,4.9068,4.93,4.9339,4.9442,4.9641,4.9666,4.9519,4.9515,4.9824,4.9856,4.9889,5.0155,4.9995,5.0012,5.0022,5.0639,5.0646,5.0653,0,0,0,0,0,0,4.8825,4.8876,4.932,4.9126,4.9182,4.9316,4.9432,4.9452,4.9529,4.9675,4.9698,4.9574,4.9821,4.9864,5.0074,5.0167,5.002,5.0037,5.0632,5.0641,5.065,5.0688,0,0,0,0,0,0,4.8807,4.8871,4.8955,4.9127,4.9193,4.9501,4.9438,4.9462,4.956,4.9558,4.9732,4.9756,4.982,5.0047,5.0092,5.0189,5.0051,5.0624,5.0636,5.0647,5.0679,5.0697,5.0713,0,0,0,0,0,4.8786,4.8952,4.8959,4.9012,4.93,4.9506,4.9543,4.9614,4.9568,4.9653,4.9746,4.975,5.0149,5.0068,5.0119,5.0223,5.0619,5.0633,5.0646,5.0671,5.0693,5.0712,0,0,0,0,0,0,4.8787,4.8976,4.8986,4.9213,4.9343,4.951,4.9619,4.9635,4.9781,4.9773,4.9853,4.9893,5.0101,5.0183,5.009,5.0442,5.0379,5.0403,5.0381,5.0403,5.042,5.0395,5.0066,0,0,0,0,0,4.8814,4.8965,4.9122,4.9307,4.9373,4.9485,4.9577,4.962,4.9758,4.9813,4.9922,5.0055,5.0211,5.0311,5.0462,5.0691,5.0729,5.0787,5.0804,5.0817,5.0837,5.0964,5.0992,5.0698,5.0698,5.0697,0,0,4.887,4.8992,4.9083,4.9311,4.9417,4.9572,4.9531,4.9696,4.9812,4.9838,5.0044,5.0129,5.0283,5.0503,5.0606,5.0578,5.0927,5.0834,5.0844,5.0857,5.0981,5.1009,5.1034,5.0707,5.0705,5.0704,0,0,4.9053,4.916,4.9327,4.9434,4.9596,4.9669,4.9709,4.9874,4.9932,5.014,5.0163,5.0301,5.0567,5.0676,5.0766,5.099,5.1,5.1037,5.1125,5.1248,5.1272,5.1293,5.1373,5.1401,5.1057,5.1057,5.1057,0,4.9103,4.9338,4.941,4.9576,4.9676,4.9707,4.9876,4.9976,5.0178,5.0246,5.0212,5.0547,5.0653,5.09,5.0954,5.1026,5.1074,5.1018,5.1262,5.1284,5.1305,5.1382,5.1412,5.106,5.106,5.106,5.1059,0,4.9391,4.9554,4.9669,4.9864,4.9976,5.0143,5.024,5.0345,5.0379,5.0455,5.0667,5.0795,5.0973,5.1034,5.1068,5.1287,5.1264,5.1246,5.1184,5.1335,5.1409,5.144,5.1065,5.1064,5.1063,5.1062,0,0,4.9584,4.9817,4.9858,4.9947,5.0128,5.0255,5.0422,5.0597,5.0685,5.0823,5.0966,5.1191,5.1175,5.1277,5.1324,5.1431,5.1601,5.14,5.1405,5.1433,5.185,5.1863,5.1896,5.1609,5.1615,5.1619,5.1837,0,4.9787,5.0087,5.0157,5.0414,5.0565,5.0597,5.0743,5.087,5.0946,5.1085,5.1169,5.1327,5.1294,5.1356,5.1464,5.1557,5.1686,5.1543,5.1742,5.1748,5.1703,5.1935,5.1949,5.2148,5.1866,5.1871,5.1875,0,5.0064,5.0209,5.0481,5.0643,5.0709,5.0839,5.1004,5.1137,5.1281,5.1329,5.1443,5.1479,5.1654,5.1584,5.1827,5.1728,5.1813,5.1871,5.1881,5.1902,5.1821,5.1963,5.2213,5.2243,5.1921,5.1917,5.1914,0,5.0177,5.0441,5.0638,5.0713,5.0906,5.0997,5.1081,5.122,5.132,5.1465,5.1531,5.1693,5.1783,5.1908,5.1986,5.1928,5.2223,5.2159,5.2268,5.2266,5.2329,5.2324,5.2597,5.2383,5.2383,5.2382,5.2382,0,5.0397,5.0562,5.0692,5.0813,5.0999,5.1078,5.126,5.1345,5.1468,5.1606,5.1643,5.1772,5.1868,5.201,5.2072,5.2264,5.2304,5.2348,5.2362,5.2345,5.2339,5.2402,5.239,5.239,5.2389,5.2387,5.2386,0,5.0555,5.0648,5.0865,5.103,5.1075,5.1205,5.1346,5.1465,5.1542,5.1717,5.1762,5.1883,5.2052,5.2143,5.2355,5.2397,5.2612,5.2618,5.2563,5.257,5.2674,5.2663,5.2997,5.3045,5.2799,5.2801,5.2803,0,5.0689,5.0817,5.0996,5.1091,5.1178,5.1331,5.1434,5.1516,5.1622,5.1795,5.1893,5.2064,5.2206,5.2474,5.2581,5.2743,5.2754,5.286,5.2779,5.2757,5.2757,5.2748,5.2761,5.2875,5.2877,5.2879,5.288,0,5.0917,5.0957,5.1104,5.1269,5.139,5.1523,5.1654,5.173,5.1834,5.1951,5.2124,5.2234,5.245,5.262,5.279,5.2877,5.2897,5.2905,5.2939,5.2922,5.2885,5.2907,5.2602,5.2897,5.2895,5.2894,5.2893,5.2893,5.1069,5.1184,5.1328,5.1491,5.1598,5.172,5.184,5.1933,5.2079,5.2262,5.2301,5.2485,5.2625,5.2856,5.2948,5.3092,5.3071,5.312,5.3132,5.3143,5.3148,5.2862,5.3123,5.3123,5.3122,5.3122,5.3122,0,5.1299,5.1393,5.1542,5.1725,5.1853,5.1861,5.2006,5.2113,5.2274,5.2404,5.2542,5.2742,5.2906,5.3026,5.3194,5.3287,5.33,5.3328,5.3322,5.3342,5.3157,5.3111,5.3314,5.3314,5.3314,5.3314,5.3314,5.3314,5.1434,5.163,5.1687,5.1937,5.203,5.2211,5.2293,5.2406,5.251,5.2731,5.2868,5.2945,5.3071,5.3249,5.34,5.3431,5.3491,5.3519,5.355,5.3375,5.3355,5.3335,5.3293,5.3531,5.3531,5.3724,5.3725,5.3727]}]]